軌道要素
Epoch 2021 Nov. 2.0 TT = JDT 2459520.5
T 2021 Oct. 19.42553 TT MPCW
q 0.0524344 (2000.0) P Q
n 0.18568680 Peri. 73.26581 -0.18112690 -0.97895565
a 3.0428604 Node 27.70594 +0.80761266 -0.20261124
e 0.9827681 Incl. 11.66636 +0.56120837 -0.02438274
P 5.31
From 182 observations 2011 Mar. 9-2016 July 2. Nongravitational parameters
A1 = +0.00, A2 = +0.0015.
|